Regional Weather Roundup
Issued by NWS Grand Forks, ND

Home | Current Version | Previous Version | Text Only | Print | Product List | Glossary On
Versions: 1 2 3 4 5 6 7 8 9 10 11 12 13 14 15 16 17 18 19 20 21 22 23 24 25 26 27 28 29 30 31 32 33 34 35 36 37 38 39 40 41 42 43 44 45 46 47 48 49 50
000
ASUS43 KFGF 310131
RWRFGF
PRAIRIE TO PINES  WEATHER ROUNDUP
NATIONAL WEATHER SERVICE EASTERN NORTH DAKOTA/GRAND FORKS ND
700 PM CST FRI JAN 30 2015

 **SATELLITE DATA USED TO AUGMENT SKY COVER AT AUTOMATED STATIONS**
 *****  WEATHER ACROSS EASTERN NORTH DAKOTA  *****

CITY           SKY/WX    TMP DP  RH WIND       PRES   REMARKS
GRAND FORKS    CLOUDY    30  23  75 NW7       30.13R WCI  23
GRAND FRKS AFB CLOUDY    30  22  73 NW10      30.14R WCI  21
GRAND FRKS NWS   N/A     28 N/A N/A N6          N/A  WCI  22
DEVILS LAKE    CLOUDY    25  19  80 N14G25    30.16R WCI  13
FARGO          CLEAR     28  23  81 S7        30.12S WCI  21
WAHPETON ARPT  CLEAR     28  25  86 SW3       30.14S
$$

 ***** WEATHER ACROSS CENTRAL AND WESTERN NORTH DAKOTA  *****

CITY           SKY/WX    TMP DP  RH WIND       PRES   REMARKS
BISMARCK       CLEAR     34  27  75 NW5       30.17R
MINOT          CLOUDY    24  20  84 NW16      30.20R WCI  11
JAMESTOWN      PTCLDY    30  26  85 NW7       30.13R WCI  23
MINOT AFB      CLOUDY    24  24  99 NW13      30.20R WCI  13
GARRISON         N/A     30  26  85 N9        30.17R WCI  22
WILLISTON      CLEAR     32  26  78 N13       30.20R WCI  22
DICKINSON      CLEAR     34  24  67 N7        30.14R
HETTINGER      CLEAR     33  24  69 N7        30.16R
$$

 *****  OTHER AIRPORT OBSERVATIONS IN OUR AREA  *****

CITY           SKY/WX    TMP DP  RH WIND       PRES   REMARKS
WALHALLA         N/A     23  21  93 N17G25    30.19R WCI   9
GRAFTON AIRPOR NOT AVBL
VALLEY CITY AR FAIR      28  28 100 NW12      30.13R WCI  18
CANDO          CLOUDY    25  21  86 N18       30.18R WCI  11
CAVALIER APRT  CLOUDY    23  18  80 N17       30.18R WCI   9
GWINNER        CLEAR     32  32 100 W9        30.14S WCI  24
ROLLA          CLOUDY    21  21 100 N16       30.17R WCI   7
 ***** THE ABOVE OBSERVATIONS ARE NON NWS ARE NOT QUALITY
       CONTROLLED AND MAY MIS-REPORT RAIN FOR SNOW...
$$

  *****  WEATHER ACROSS NORTHERN MINNESOTA  *****

CITY           SKY/WX    TMP DP  RH WIND       PRES   REMARKS
FLAG ISLAND    CLOUDY    12   9  85 CALM      30.12S
WARROAD        CLOUDY    19  14  79 CALM      30.13S
ROSEAU         CLOUDY    21  16  79 CALM      30.13R
HALLOCK        CLOUDY    25  19  80 NW10      30.15S WCI  15
THF RVR FALLS  CLOUDY    23  19  86 CALM      30.11F
BAUDETTE       CLOUDY    17  10  74 S5        30.12R WCI  10
WASKISH        CLOUDY    18  10  73 CALM      30.13S
CROOKSTON      CLOUDY    25  21  86 CALM      30.13F
STEPHEN NDAWN    N/A     25  21  86 NW5         N/A  WCI  19
GREENBUSH NDAW   N/A     21  19  93 NW5         N/A  WCI  15
$$
  *****  WEATHER ACROSS CENTRAL AND WEST MINNESOTA  *****

CITY           SKY/WX    TMP DP  RH WIND       PRES   REMARKS
FOSSTON        CLOUDY    21  18  86 S7        30.12S WCI  13
BEMIDJI        CLOUDY    22  16  76 S5        30.12S WCI  16
PARK RAPIDS    CLOUDY    24  17  74 S10       30.12F WCI  14
ELBOW LAKE     FAIR      24  22  93 SE5       30.13F WCI  18
WADENA         CLOUDY    21  18  86 S8        30.13F WCI  12
DETROIT LAKES  CLEAR     23  21  93 S7        30.13S WCI  15
MOORHEAD       CLEAR     27  27 100 S9        30.13S WCI  17
FERGUS FALLS   CLEAR     25  19  80 SE5       30.17S WCI  19
MORRIS MN      CLEAR     25  25 100 S6        30.14S FOG     WCI  18
STAPLES        CLOUDY    23  18  80 S9        30.14F WCI  13
$$
  *****  WEATHER ELSEWHERE ACROSS MINNESOTA  *****

CITY           SKY/WX    TMP DP  RH WIND       PRES   REMARKS
DULUTH         CLOUDY    14   3  61 S8        30.17S WCI   3
INTRNTL FALLS  CLOUDY    13   8  81 CALM      30.14F
ELY            CLOUDY    12   7  79 SW9       30.15R WCI   0
CLOQUET        CLOUDY    16   5  62 S3        30.19R
WHEATON        CLEAR     28  27  93 CALM      30.17R
BRAINERD       CLOUDY    23  14  68 S9        30.17F WCI  13
HIBBING        CLOUDY    16   4  59 S7        30.16S WCI   6
ALEXANDRIA     MOCLDY    24  20  84 SE7       30.15F WCI  16
SAINT CLOUD    MOCLDY    23  17  78 CALM      30.21S
MINNEAPOLIS    PTCLDY    26  17  68 S8        30.24F WCI  18
$$

  *****  WEATHER ACROSS SOUTH DAKOTA  *****

CITY           SKY/WX    TMP DP  RH WIND       PRES   REMARKS
SIOUX FALLS    PTCLDY    33  28  81 S9        30.18F
BROOKINGS      NOT AVBL
WATERTOWN      CLEAR     30  27  88 SW9       30.13R WCI  22
HURON          CLEAR     31  26  82 SE3       30.14R
SISSETON         N/A     32  28  85 NW3       30.13S
ABERDEEN       CLEAR     30  27  88 CALM      30.14R
MITCHELL       PTCLDY    37  28  70 S10       30.15S
PIERRE         PTCLDY    28  21  75 N8        30.13R WCI  20
MOBRIDGE       CLEAR     30  24  78 CALM      30.11S
RAPID CITY     MOCLDY    40  24  53 N15       30.14R
$$

  *****  SOME WEATHER IN NEARBY STATES *****

CITY           SKY/WX    TMP DP  RH WIND       PRES   REMARKS
GLASGOW MT     PTCLDY    32  28  85 NE6       30.16F
GREAT FALLS MT CLEAR     35  18  49 SW9       30.07F
CHEYENNE WY    CLOUDY    37  23  56 N7        30.10R
SCOTTSBLUFF NE CLOUDY    36  29  75 NE3       30.12R
OMAHA NE       MOCLDY    33  24  69 S10       30.31F WCI  25
DES MOINES IA  FAIR      30  15  53 S7        30.35F WCI  23
DAVENPORT IA   CLEAR     22  15  75 S6        30.41F WCI  14
CHICAGO IL     PTCLDY    23  11  60 W6        30.41F WCI  16
EAU CLAIRE WI  MOCLDY    15   5  64 S7        30.29F WCI   5
LA CROSSE WI   CLEAR     22   9  57 SE6       30.34F WCI  14
$$

  *****  SOME NATIONAL WEATHER *****

CITY           SKY/WX    TMP DP  RH WIND       PRES   REMARKS
LA GUARDIA NY  PTCLDY    25  12  58 NW32      29.97R WCI   8
RALEIGH NC     CLEAR     36   7  29 VRB6      30.25R
ATLANTA GA     PTCLDY    43  21  41 N13       30.31S
NEW ORLEANS LA MOCLDY    53  38  56 N9        30.34R
OKLAHOMA CITY  CLOUDY    45  24  43 E5        30.37R
ALBUQUERQUE NM LGT RAIN  37  31  78 E9        30.08S
SALT LAKE CITY CLOUDY    41  36  82 W7        29.99S
LOS ANGELES CA CLOUDY    62  53  72 VRB6      29.85S
BOISE ID       CLEAR     40  32  73 NW6       30.16F
SEATTLE WA     PTCLDY    41  39  93 CALM      30.28R FOG
$$

*** WEATHER ACROSS MANITOBA...SASKATCHEWAN AND ONTARIO ***
                ***ONTARIO***

CITY           SKY/WX    TMP DP  RH WIND       PRES   REMARKS
GERALDTON      CLEAR     -8 -13  77 SW6       30.18F WCI -21
THUNDER BAY    MOCLDY     7   1  78 CALM      30.23F
SIOUX LOOKOUT  LGT SNOW   5   1  85 S7        30.11F WCI  -7
TORONTO        PTCLDY     9  -2  61 NW15      30.35S WCI  -8
BIG TROUT LK   FLURRIES  -2  -6  84 W5        30.05F WCI -12
PICKLE LAKE    LGT SNOW   3  -4  72 SW9G20    30.03F DRFTSNOWWCI -11
DRYDEN         LGT SNOW   7   5  92 SW8       30.11S WCI  -6
KENORA         FLURRIES   9   5  85 S8        30.11  WCI  -4
$$
                *** MANITOBA***

CITY           SKY/WX    TMP DP  RH WIND       PRES   REMARKS
BRANDON        MOCLDY    16  12  86 NE7       30.21R WCI   6
DAUPHIN        PTCLDY     9   3  78 N10       30.30R WCI  -6
ISLAND LAKE    PTCLDY    -6  -9  84 W9        30.15R WCI -22
PILOT MOUND      N/A     19  16  86 NW10        N/A  WCI   8
THE PAS        CLEAR      0  -8  71 NW10G17   30.36R WCI -17
THOMPSON       CRYSTALS -13 -22  64 NW15G26   30.30R WCI -36
WINNIPEG       FLURRIES  16  12  86 N16       30.20R WCI   0
LYNN LAKE      CLEAR    -20 -29  63 NW16G24   30.38R WCI -46
CHURCHILL      CRYSTALS -26 -35  62 NW33G40   30.22R VSB 3/4 WCI -62
GILLAM         CLEAR    -17 -27  58 N18G24    30.24R WCI -43
$$
                ***SASKATCHEWAN***

CITY           SKY/WX    TMP DP  RH WIND       PRES   REMARKS
ESTEVAN        CLOUDY    23  19  86 N13       30.22R WCI  11
KINDERSLEY     CLOUDY    19  18  93 NE15      30.21R FOG     WCI   5
LLOYDMINSTER   FLURRIES  12   9  85 NE14      30.31R WCI  -3
PRINCE ALBERT  CLOUDY    10   0  61 N7        30.38R WCI   0
REGINA         CLOUDY    19  16  86 N10       30.25S WCI   8
YORKTON        CLOUDY    12   7  79 N13G18    30.27R WCI  -3
N. BATTLEFORD  CLOUDY    16  10  79 NE13G18   30.33S WCI   2
LA RONGE       CLEAR     -2  -9  71 N9        30.45R WCI -18
SASKATOON      FLURRIES  16  10  79 NE12      30.34R WCI   3
SWIFT CURRENT  FOG       25  23  93 E12       30.16S VSB 3/8 WCI  14
$$
NOTE: THESE ARE AUTOMATED STATIONS WITH LIMITED QUALITY CONTROL
      "FAIR" INDICATES FEW OR NO CLOUDS BELOW 12,000 FEET WITH NO
      SIGNIFICANT WEATHER AND/OR OBSTRUCTIONS TO VISIBILITY.
      SKY/WX - SKY CONDITION AND SIGNIFICANT WEATHER.
      TMP - AIR TEMPERATURE.    DP   - DEWPOINT TEMPERATURE.
      RH  - RELATIVE HUMIDITY.  PRES - PRESSURE.
      HX  - HEAT INDEX.         WCI  - WIND CHILL INDEX.
$



USA.gov is the U.S. government's official web portal to all federal, state and local government web resources and services.